Погода в Сторожевом

Россия / Воронежская область     51°13′14″N   39°11′19″E
темп.,
°C
ветер,
м/с
пор.,
м/с
влажн.,
%
обл.,
%
осадки,
мм/ч
давл.,
гПа
погр.,
м
8 мая, сб
сб800:00+8ююв488177 0.0 1016155
03:00+7юв41183100 0.0 1015232
06:00+8ююв51380100 0.0 1014383
09:00+13ююв81464100 0.0 1013712
12:00+14ю81368100 0.0 1010861
15:00+14ююз61283100 1.2 1008666
18:00+13юз51394100 2.8 1007750
21:00+12юз51093100 3.6 1007544
9 мая, вс
вс900:00+10зюз6994100 3.4 1009551
03:00+6з71092100 3.9 1011677
06:00+5зсз61190100 0.1 1012926
09:00+6сз61086100 0.3 10141004
12:00+7сз71076100 0.1 10161189
15:00+10ссз81058100 0.1 10171644
18:00+9ссз7106676 0.1 10191472
21:00+7с6107160 0.1 1022924
10 мая, пн
пн1000:00+6ссз4106784 0.0 1022406
03:00+4ссз5148015 0.0 1024413
06:00+5ссз61578100 0.0 1024535
09:00+10с9155766 0.0 10241485
12:00+13ссв111446100 0.0 10231661
15:00+13ссв91553100 0.0 10221816
18:00+10ссв101662100 0.1 10221137
21:00+9ссв91872100 0.6 1022780
11 мая, вт
вт1100:00+9ссв101972100 0.2 1021692
03:00+9ссв91875100 0.3 1020684
06:00+8ссв91791100 1.3 1020549
09:00+9св81494100 4.8 1021567
12:00+12в610850 0.6 1022918
15:00+13в7106520 0.8 10231256
18:00+14в5862100 0.0 10231068
21:00+11всв4983100 0.1 1024395
12 мая, ср
ср1200:00+8всв339382 0.0 102352
03:00+7в2293100 0.0 102318
06:00+8в258999 0.0 1023168
09:00+13в45640 0.0 1022762
12:00+17вюв465259 0.0 10211810
15:00+17юв465199 0.0 10201926
18:00+17вюв2461100 0.0 1019639
21:00+12в358523 0.0 101975